Weather History for EGNH - May, 2013

Change the Weather History Date:

Monday, May 13, 2013

  Actual Average Record
Temperature  
Mean Temperature 47 °F -  
Max Temperature 53 °F 59 °F 75 °F (1998)
Min Temperature 41 °F 49 °F 41 °F (2013)
Degree Days  
Heating Degree Days 18    
Moisture  
Dew Point 40 °F    
Average Humidity 71    
Maximum Humidity 87    
Minimum Humidity 52    
Precipitation  
Precipitation 0.00 in - - ()
Sea Level Pressure  
Sea Level Pressure 29.73 in    
Wind  
Wind Speed 25 mph ()    
Max Wind Speed 34 mph    
Max Gust Speed 34 mph    
Visibility 6.2 miles    
Events Rain    
Averages and records for this station are not official NWS values.
T = Trace of Precipitation, MM = Missing Value Source: Averaged Metar Reports

Daily Weather History Graph

Daily Weather History Graph

Search for Another Location

Airport or City:

Trip Planner

Search our weather history database for the weather conditions in past years. The results will help you decide how hot, cold, wet, or windy it might be!

Date:

Astronomy

May. 13, 2013 Rise Set
Actual Time 5:13 AM BST 9:04 PM BST
Civil Twilight 4:29 AM BST 9:49 PM BST
Nautical Twilight 3:26 AM BST 10:53 PM BST
Astronomical Twilight 1:40 AM BST 12:36 AM BST
Moon 7:43 AM BST (5/13) No Moon Set
Length of Visible Light 17h 20m
Length of Day
15h 50m
Waxing Crescent, 11% of the Moon is Illuminated
May 13
Waxing Crescent
May 18
First Quarter
May 25
Full
May 31
Last Quarter
Jun 8
New

Hourly Weather History & Observations

Time (BST) Temp. Windchill Dew Point Humidity Pressure Visibility Wind Dir Wind Speed Gust Speed Precip Events Conditions
12:50 AM 48 °F - 42 °F 74%  in - West 20.7 mph - -  
3:50 AM 46 °F - 39 °F 69%  in - West 29.9 mph - -  
5:50 AM 44.6 °F 35.3 °F 41.0 °F 87% 29.77 in 6.2 mi West 26.5 mph - N/A Rain Light Rain Showers
6:20 AM 46.4 °F 37.7 °F 39.2 °F 76% 29.77 in 6.2 mi West 26.5 mph - N/A   Scattered Clouds
6:50 AM 46 °F - 37 °F 63%  in - West 31.1 mph - -  
6:50 AM 46.4 °F 36.5 °F 37.4 °F 71% 29.77 in 6.2 mi West 34.5 mph - N/A   Scattered Clouds
7:20 AM 46.4 °F 37.4 °F 39.2 °F 76% 29.77 in 6.2 mi West 28.8 mph - N/A   Partly Cloudy
8:20 AM 46.4 °F 37.4 °F 41.0 °F 81% 29.77 in 6.2 mi West 28.8 mph - N/A   Partly Cloudy
8:50 AM 48.2 °F - 39.2 °F 71% 29.77 in 6.2 mi West 31.1 mph - N/A   Scattered Clouds
9:20 AM 48.2 °F - 39.2 °F 71% 29.77 in 6.2 mi West 28.8 mph - N/A   Scattered Clouds
9:50 AM 47 °F - 38 °F 62%  in - West 29.9 mph - -  
9:50 AM 48.2 °F - 39.2 °F 71% 29.77 in 6.2 mi West 28.8 mph - N/A   Scattered Clouds
10:20 AM 48.2 °F - 39.2 °F 71% 29.77 in 6.2 mi West 28.8 mph - N/A   Scattered Clouds
10:50 AM 48.2 °F - 39.2 °F 71% 29.77 in 6.2 mi WSW 34.5 mph - N/A   Scattered Clouds
11:20 AM 50.0 °F - 39.2 °F 66% 29.77 in 6.2 mi West 28.8 mph - N/A   Partly Cloudy
11:50 AM 48.2 °F - 37.4 °F 66% 29.74 in 6.2 mi West 31.1 mph - N/A   Partly Cloudy
12:20 PM 50.0 °F - 41.0 °F 71% 29.74 in 6.2 mi West 29.9 mph - N/A   Partly Cloudy
12:50 PM 50 °F - 38 °F 52%  in - WSW 27.6 mph - -  
12:50 PM 51.8 °F - 39.2 °F 62% 29.74 in 6.2 mi West 28.8 mph - N/A   Partly Cloudy
1:20 PM 51.8 °F - 41.0 °F 67% 29.74 in 6.2 mi WSW 25.3 mph - N/A   Partly Cloudy
1:50 PM 51.8 °F - 41.0 °F 67% 29.74 in 6.2 mi WSW 25.3 mph - N/A   Scattered Clouds
2:20 PM 51.8 °F - 42.8 °F 71% 29.71 in 6.2 mi WSW 26.5 mph - N/A   Scattered Clouds
2:50 PM 53.6 °F - 42.8 °F 67% 29.71 in 6.2 mi WSW 24.2 mph - N/A   Scattered Clouds
3:20 PM 50.0 °F - 42.8 °F 76% 29.71 in 6.2 mi WSW 28.8 mph - N/A   Partly Cloudy
3:50 PM 49 °F - 41 °F 66%  in - WSW 24.2 mph - -  
3:50 PM 50.0 °F - 41.0 °F 71% 29.71 in 6.2 mi WSW 25.3 mph - N/A   Partly Cloudy
4:20 PM 51.8 °F - 42.8 °F 71% 29.71 in 6.2 mi WSW 21.9 mph - N/A   Scattered Clouds
4:50 PM 50.0 °F - 42.8 °F 76% 29.71 in 6.2 mi WSW 26.5 mph - N/A   Scattered Clouds
5:20 PM 48.2 °F - 39.2 °F 71% 29.71 in 6.2 mi West 29.9 mph - N/A   Scattered Clouds
5:50 PM 50.0 °F - 41.0 °F 71% 29.71 in 6.2 mi WSW 25.3 mph - N/A   Scattered Clouds
6:50 PM 48 °F - 38 °F 60%  in - WSW 24.2 mph - -  
6:50 PM 48.2 °F - 39.2 °F 71% 29.68 in 6.2 mi WSW 25.3 mph - N/A   Partly Cloudy
7:20 PM 48.2 °F - 39.2 °F 71% 29.68 in 6.2 mi West 27.6 mph - N/A   Partly Cloudy
7:50 PM 48.2 °F - 41.0 °F 76% 29.68 in 6.2 mi WSW 25.3 mph - N/A   Partly Cloudy
8:20 PM 46.4 °F 38.3 °F 39.2 °F 76% 29.68 in 6.2 mi West 23.0 mph 34.5 mph N/A   Partly Cloudy
8:50 PM 46.4 °F 38.1 °F 39.2 °F 76% 29.71 in 6.2 mi West 24.2 mph - N/A   Partly Cloudy
9:20 PM 46.4 °F 38.1 °F 39.2 °F 76% 29.71 in 6.2 mi West 24.2 mph - N/A   Partly Cloudy
9:50 PM 46 °F - 39 °F 68%  in - WSW 24.2 mph - -  
9:50 PM 46.4 °F 38.1 °F 41.0 °F 81% 29.68 in 6.2 mi WSW 24.2 mph - N/A   Partly Cloudy